Terminal Aerodrome Forecast
Issued by NWS Wilmington, OH

Current Version | Previous Version | Text Only | Print | Product List | Glossary Off
Versions: 1 2 3 4 5 6 7 8 9 10 11 12 13 14 15 16 17 18 19 20 21 22 23 24 25 26 27 28 29 30

000
FTUS41 KILN 200800 AAA
TAFCVG
TAF AMD
KCVG 200857Z 2009/2112 17006KT P6SM FEW050 SCT250
     FM201100 18008KT P6SM SCT050
     FM201500 21012G20KT P6SM BKN050
     FM202300 22010KT P6SM FEW050
     FM210600 22012KT P6SM VCSH BKN040=

USA.gov is the U.S. government's official web portal to all federal, state and local government web resources and services.